TimeEST,TemperatureF,Dew PointF,Humidity,Sea Level PressureIn,VisibilityMPH,Wind Direction,Wind SpeedMPH,Gust SpeedMPH,PrecipitationIn,Events,Conditions,WindDirDegrees,DateUTC
12:55 AM,35.1,28.9,78,30.11,7.0,East,6.9,-,N/A,,Clear,100,2012-12-15 05:55:00
1:55 AM,34.0,28.9,82,30.10,7.0,East,4.6,-,N/A,,Clear,100,2012-12-15 06:55:00
2:55 AM,34.0,28.9,82,30.09,7.0,ESE,6.9,-,N/A,,Clear,110,2012-12-15 07:55:00
3:55 AM,34.0,28.9,82,30.08,7.0,ESE,8.1,-,N/A,,Clear,110,2012-12-15 08:55:00
4:55 AM,34.0,28.9,82,30.07,7.0,ESE,9.2,-,N/A,,Clear,110,2012-12-15 09:55:00
5:55 AM,36.0,28.9,76,30.06,8.0,ESE,10.4,-,N/A,,Scattered Clouds,120,2012-12-15 10:55:00
6:55 AM,36.0,28.9,76,30.04,8.0,ESE,12.7,-,N/A,,Mostly Cloudy,110,2012-12-15 11:55:00
7:55 AM,37.0,28.9,73,30.01,9.0,ESE,10.4,-,N/A,,Mostly Cloudy,110,2012-12-15 12:55:00
8:55 AM,37.9,28.9,70,29.97,8.0,ESE,11.5,-,N/A,,Overcast,110,2012-12-15 13:55:00
9:55 AM,39.9,28.9,65,29.95,9.0,ESE,10.4,-,N/A,,Scattered Clouds,110,2012-12-15 14:55:00
10:55 AM,39.9,30.0,68,29.93,9.0,ESE,12.7,-,N/A,,Overcast,120,2012-12-15 15:55:00
11:55 AM,41.0,30.9,67,29.86,10.0,ESE,11.5,-,0.00,,Overcast,110,2012-12-15 16:55:00
12:55 PM,39.9,34.0,79,29.85,5.0,East,10.4,-,0.06,Rain,Light Rain,90,2012-12-15 17:55:00
1:55 PM,39.9,35.1,83,29.78,4.0,East,12.7,-,0.03,Rain,Light Rain,90,2012-12-15 18:55:00
2:44 PM,39.2,35.6,87,29.74,2.0,ESE,12.7,-,0.02,Rain,Light Rain,110,2012-12-15 19:44:00
2:55 PM,39.9,37.0,89,29.75,2.0,East,13.8,-,0.04,Rain,Light Rain,100,2012-12-15 19:55:00
2:58 PM,39.2,37.4,93,29.72,1.8,East,13.8,-,0.00,Rain,Light Rain,100,2012-12-15 19:58:00
3:09 PM,41.0,37.4,87,29.71,2.0,ESE,17.3,-,0.01,Rain,Light Rain,110,2012-12-15 20:09:00
3:23 PM,41.0,37.4,87,29.70,3.0,ESE,16.1,-,0.01,Rain,Light Rain,110,2012-12-15 20:23:00
3:30 PM,41.0,37.4,87,29.70,2.5,ESE,20.7,28.8,0.01,Rain,Light Rain,120,2012-12-15 20:30:00
3:44 PM,41.0,37.4,87,29.69,2.0,SE,17.3,25.3,0.01,Rain,Light Rain,130,2012-12-15 20:44:00
3:55 PM,41.0,37.9,89,29.71,2.5,SE,18.4,26.5,0.01,Rain,Light Rain,130,2012-12-15 20:55:00
4:06 PM,41.0,37.4,87,29.69,2.5,SE,20.7,24.2,0.01,Rain,Light Rain,130,2012-12-15 21:06:00
4:19 PM,41.0,37.4,87,29.68,1.5,ESE,16.1,26.5,0.01,Rain,Light Rain,120,2012-12-15 21:19:00
4:46 PM,41.0,37.4,87,29.67,2.0,ESE,13.8,-,0.02,Rain,Light Rain,120,2012-12-15 21:46:00
4:55 PM,41.0,37.9,89,29.68,2.5,ESE,17.3,-,0.04,Rain,Light Rain,120,2012-12-15 21:55:00
5:05 PM,41.0,37.4,87,29.66,4.0,ESE,13.8,-,0.02,Rain,Light Rain,120,2012-12-15 22:05:00
5:55 PM,42.1,39.0,89,29.66,4.0,ESE,13.8,-,0.09,Rain,Light Rain,120,2012-12-15 22:55:00
6:55 PM,43.0,39.9,89,29.65,3.0,SE,10.4,-,0.10,Rain,Rain,130,2012-12-15 23:55:00
7:47 PM,44.6,42.8,93,29.62,2.5,SE,5.8,-,0.08,Rain,Rain,130,2012-12-16 00:47:00
7:55 PM,44.1,41.0,89,29.63,3.0,SE,5.8,-,0.09,Rain,Light Rain,140,2012-12-16 00:55:00
8:33 PM,44.6,42.8,93,29.60,2.5,SE,9.2,-,0.05,Rain,Rain,140,2012-12-16 01:33:00
8:44 PM,44.6,42.8,93,29.60,3.0,SE,8.1,-,0.07,Rain,Light Rain,140,2012-12-16 01:44:00
8:55 PM,45.0,42.1,90,29.61,3.0,SE,11.5,-,0.09,Rain,Rain,140,2012-12-16 01:55:00
9:55 PM,46.0,44.1,93,29.60,6.0,South,8.1,-,0.02,Rain,Light Rain,170,2012-12-16 02:55:00
10:55 PM,48.0,45.0,89,29.58,7.0,South,12.7,20.7,0.00,,Overcast,190,2012-12-16 03:55:00
11:55 PM,48.0,45.0,89,29.58,6.0,SSW,13.8,-,N/A,,Overcast,210,2012-12-16 04:55:00